User: anonymous   Login
Location: Unspecified
(0.0000°N, 0.0000°E)
Time: 23:24:46
(UTC+00:00)
Language:

ISS - Orbit

View from above orbital plane
View from above orbital plane
View from above satellite
View from above satellite

Ground track
Ground track

The orbit data is extracted from the following two-line orbital elements,

1 25544U 98067A   17018.53444115  .00016717  00000-0  10270-3 0  9023
2 25544  51.6419  64.3556 0007441  94.6870 265.5132 15.54102897 38475
Epoch (UTC): 18 January 2017 12:49:35
Eccentricity: 0.0007441
inclination: 51.6419°
perigee height: 400 km
apogee height: 410 km
right ascension of ascending node: 64.3556°
argument of perigee: 94.6870°
revolutions per day: 15.54102897
mean anomaly at epoch: 265.5132°
orbit number at epoch: 3847

The dashed part of the orbit path shows where the satellite is in the earth's shadow,  

DLR